Time,TemperatureF,DewpointF,PressureIn,WindDirection,WindDirectionDegrees,WindSpeedMPH,WindSpeedGustMPH,Humidity,HourlyPrecipIn,Conditions,Clouds,dailyrainin,SolarRadiationWatts/m^2,SoftwareType,DateUTC
2013-09-08 00:00:00,48.4,45.9,29.94,SW,227,5.0,8.0,91,0.00,RA,,0.00,0.0,WeatherDisplay:10.37,2013-09-07 23:00:00,
2013-09-08 00:10:00,48.4,45.9,29.94,SW,227,6.0,10.0,91,0.00,CLR,,0.00,0.0,WeatherDisplay:10.37,2013-09-07 23:10:00,
2013-09-08 00:15:00,48.5,46.0,29.94,SW,230,7.0,10.0,91,0.00,CLR,,0.00,0.0,WeatherDisplay:10.37,2013-09-07 23:15:00,
2013-09-08 00:25:00,48.8,46.2,29.94,WSW,238,6.0,9.0,91,0.00,CLR,,0.00,0.0,WeatherDisplay:10.37,2013-09-07 23:25:00,
2013-09-08 00:30:00,48.9,46.4,29.94,WSW,244,5.0,9.0,91,0.00,CLR,,0.00,0.0,WeatherDisplay:10.37,2013-09-07 23:30:00,
2013-09-08 00:35:00,49.0,46.5,29.93,WSW,256,5.0,9.0,91,0.00,CLR,,0.00,0.0,WeatherDisplay:10.37,2013-09-07 23:35:00,
2013-09-08 00:40:00,49.1,46.6,29.93,West,261,6.0,8.0,91,0.00,CLR,,0.00,0.0,WeatherDisplay:10.37,2013-09-07 23:40:00,
2013-09-08 00:45:00,49.1,46.6,29.93,West,260,6.0,10.0,91,0.00,CLR,,0.00,0.0,WeatherDisplay:10.37,2013-09-07 23:45:00,
2013-09-08 00:55:00,49.3,46.5,29.93,WSW,252,6.0,9.0,90,0.00,CLR,,0.00,0.0,WeatherDisplay:10.37,2013-09-07 23:55:00,
2013-09-08 01:00:00,49.4,46.6,29.93,WSW,247,6.0,9.0,90,0.00,CLR,,0.00,0.0,WeatherDisplay:10.37,2013-09-08 00:00:00,
2013-09-08 01:10:00,49.6,46.5,29.93,WSW,242,7.0,9.0,89,0.00,CLR,,0.00,0.0,WeatherDisplay:10.37,2013-09-08 00:10:00,
2013-09-08 01:15:00,49.6,46.5,29.93,WSW,245,6.0,10.0,89,0.00,CLR,,0.00,0.0,WeatherDisplay:10.37,2013-09-08 00:15:00,
2013-09-08 01:25:00,49.8,46.3,29.93,WSW,248,8.0,12.0,88,0.00,CLR,,0.00,0.0,WeatherDisplay:10.37,2013-09-08 00:25:00,
2013-09-08 01:30:00,49.8,46.4,29.93,WSW,249,9.0,12.0,88,0.00,CLR,,0.00,0.0,WeatherDisplay:10.37,2013-09-08 00:30:00,
2013-09-08 01:40:00,49.7,46.0,29.93,West,268,7.0,13.0,87,0.00,CLR,,0.00,0.0,WeatherDisplay:10.37,2013-09-08 00:40:00,
2013-09-08 01:45:00,49.7,46.0,29.93,West,265,7.0,12.0,87,0.00,CLR,,0.00,0.0,WeatherDisplay:10.37,2013-09-08 00:45:00,
2013-09-08 01:50:00,49.7,46.0,29.93,WSW,257,7.0,12.0,87,0.00,CLR,,0.00,0.0,WeatherDisplay:10.37,2013-09-08 00:50:00,
2013-09-08 02:00:00,49.6,46.2,29.94,WSW,243,6.0,12.0,88,0.00,CLR,,0.00,0.0,WeatherDisplay:10.37,2013-09-08 01:00:00,
2013-09-08 02:10:00,49.6,46.2,29.94,WSW,240,7.0,10.0,88,0.00,CLR,,0.00,0.0,WeatherDisplay:10.37,2013-09-08 01:10:00,
2013-09-08 02:15:00,49.6,46.2,29.94,SW,235,7.0,9.0,88,0.00,CLR,,0.00,0.0,WeatherDisplay:10.37,2013-09-08 01:15:00,
2013-09-08 02:20:00,49.6,46.2,29.94,SW,235,7.0,10.0,88,0.00,CLR,,0.00,0.0,WeatherDisplay:10.37,2013-09-08 01:20:00,
2013-09-08 02:25:00,49.5,46.4,29.94,SW,235,7.0,10.0,89,0.00,CLR,,0.00,0.0,WeatherDisplay:10.37,2013-09-08 01:25:00,
2013-09-08 02:30:00,49.5,46.4,29.94,WSW,239,7.0,10.0,89,0.00,CLR,,0.00,0.0,WeatherDisplay:10.37,2013-09-08 01:30:00,
2013-09-08 02:38:00,49.6,46.5,29.94,WSW,248,7.0,12.0,89,0.00,CLR,,0.00,0.0,WeatherDisplay:10.37,2013-09-08 01:38:00,
2013-09-08 02:45:00,49.7,46.6,29.94,West,262,7.0,13.0,89,0.00,CLR,,0.00,0.0,WeatherDisplay:10.37,2013-09-08 01:45:00,
2013-09-08 02:50:00,49.7,46.6,29.94,West,262,8.0,16.0,89,0.00,CLR,,0.00,0.0,WeatherDisplay:10.37,2013-09-08 01:50:00,
2013-09-08 02:55:00,49.7,46.3,29.94,West,260,8.0,17.0,88,0.00,CLR,,0.00,0.0,WeatherDisplay:10.37,2013-09-08 01:55:00,
2013-09-08 03:00:00,49.7,46.3,29.94,West,261,8.0,12.0,88,0.00,CLR,,0.00,0.0,WeatherDisplay:10.37,2013-09-08 02:00:00,
2013-09-08 03:10:00,49.8,46.4,29.94,WSW,258,6.0,10.0,88,0.00,CLR,,0.00,0.0,WeatherDisplay:10.37,2013-09-08 02:10:00,
2013-09-08 03:15:00,49.7,46.3,29.93,West,267,6.0,10.0,88,0.00,CLR,,0.00,0.0,WeatherDisplay:10.37,2013-09-08 02:15:00,
2013-09-08 03:20:00,49.6,46.2,29.93,West,270,6.0,12.0,88,0.00,CLR,,0.00,0.0,WeatherDisplay:10.37,2013-09-08 02:20:00,
2013-09-08 03:25:00,49.5,46.1,29.94,West,262,6.0,9.0,88,0.00,CLR,,0.00,0.0,WeatherDisplay:10.37,2013-09-08 02:25:00,
2013-09-08 03:30:00,49.4,46.0,29.94,West,263,5.0,8.0,88,0.00,CLR,,0.00,0.0,WeatherDisplay:10.37,2013-09-08 02:30:00,
2013-09-08 03:40:00,49.2,45.8,29.94,West,259,5.0,8.0,88,0.00,CLR,,0.00,0.0,WeatherDisplay:10.37,2013-09-08 02:40:00,
2013-09-08 03:45:00,49.1,45.7,29.94,WSW,257,6.0,8.0,88,0.00,CLR,,0.00,0.0,WeatherDisplay:10.37,2013-09-08 02:45:00,
2013-09-08 03:50:00,49.1,45.7,29.94,West,259,5.0,7.0,88,0.00,CLR,,0.00,0.0,WeatherDisplay:10.37,2013-09-08 02:50:00,
2013-09-08 03:55:00,49.0,45.6,29.94,WSW,255,6.0,9.0,88,0.00,CLR,,0.00,0.0,WeatherDisplay:10.37,2013-09-08 02:55:00,
2013-09-08 04:00:00,48.9,45.5,29.94,WSW,248,7.0,10.0,88,0.00,CLR,,0.00,0.0,WeatherDisplay:10.37,2013-09-08 03:00:00,
2013-09-08 04:10:00,48.9,45.8,29.94,WSW,254,8.0,12.0,89,0.00,CLR,,0.00,0.0,WeatherDisplay:10.37,2013-09-08 03:10:00,
2013-09-08 04:15:00,48.9,46.1,29.94,West,259,7.0,12.0,90,0.00,CLR,,0.00,0.0,WeatherDisplay:10.37,2013-09-08 03:15:00,
2013-09-08 04:25:00,48.9,46.1,29.93,WSW,254,8.0,15.0,90,0.00,CLR,,0.00,0.0,WeatherDisplay:10.37,2013-09-08 03:25:00,
2013-09-08 04:30:00,48.9,46.1,29.93,WSW,251,8.0,14.0,90,0.00,CLR,,0.00,0.0,WeatherDisplay:10.37,2013-09-08 03:30:00,
2013-09-08 04:35:00,48.9,46.1,29.93,WSW,245,8.0,12.0,90,0.00,CLR,,0.00,0.0,WeatherDisplay:10.37,2013-09-08 03:35:00,
2013-09-08 04:40:00,48.9,46.1,29.93,WSW,245,7.0,13.0,90,0.00,CLR,,0.00,0.0,WeatherDisplay:10.37,2013-09-08 03:40:00,
2013-09-08 04:45:00,48.9,46.1,29.93,WSW,243,9.0,12.0,90,0.00,CLR,,0.00,0.0,WeatherDisplay:10.37,2013-09-08 03:45:00,
2013-09-08 04:50:00,49.0,46.5,29.93,WSW,250,7.0,12.0,91,0.00,CLR,,0.00,0.0,WeatherDisplay:10.37,2013-09-08 03:50:00,
2013-09-08 04:55:00,49.0,46.5,29.93,WSW,253,8.0,12.0,91,0.00,CLR,,0.00,0.0,WeatherDisplay:10.37,2013-09-08 03:55:00,
2013-09-08 05:00:00,49.0,46.5,29.94,WSW,247,7.0,12.0,91,0.00,CLR,,0.00,0.0,WeatherDisplay:10.37,2013-09-08 04:00:00,
2013-09-08 05:05:00,49.0,46.5,29.94,WSW,245,7.0,12.0,91,0.00,CLR,,0.00,0.0,WeatherDisplay:10.37,2013-09-08 04:05:00,
2013-09-08 05:10:00,49.0,46.5,29.94,WSW,253,7.0,10.0,91,0.00,CLR,,0.00,0.0,WeatherDisplay:10.37,2013-09-08 04:10:00,
2013-09-08 05:15:00,49.0,46.5,29.94,West,262,6.0,9.0,91,0.00,CLR,,0.00,0.0,WeatherDisplay:10.37,2013-09-08 04:15:00,
2013-09-08 05:20:00,49.0,46.2,29.93,WSW,257,8.0,11.0,90,0.00,CLR,,0.00,0.0,WeatherDisplay:10.37,2013-09-08 04:20:00,
2013-09-08 05:30:00,49.3,46.2,29.93,West,263,7.0,13.0,89,0.00,CLR,,0.00,0.0,WeatherDisplay:10.37,2013-09-08 04:30:00,
2013-09-08 05:40:00,49.6,46.2,29.93,WSW,258,8.0,12.0,88,0.00,CLR,,0.00,0.0,WeatherDisplay:10.37,2013-09-08 04:40:00,
2013-09-08 05:45:00,49.7,46.3,29.93,WSW,257,7.0,12.0,88,0.00,CLR,,0.00,0.0,WeatherDisplay:10.37,2013-09-08 04:45:00,
2013-09-08 05:50:00,49.7,46.0,29.94,WSW,255,7.0,12.0,87,0.00,CLR,,0.00,0.0,WeatherDisplay:10.37,2013-09-08 04:50:00,
2013-09-08 05:55:00,49.7,46.0,29.94,WSW,246,7.0,10.0,87,0.00,CLR,,0.00,0.0,WeatherDisplay:10.37,2013-09-08 04:55:00,
2013-09-08 06:00:00,49.6,46.2,29.94,WSW,247,7.0,10.0,88,0.00,CLR,,0.00,0.0,WeatherDisplay:10.37,2013-09-08 05:00:00,
2013-09-08 06:10:00,49.5,46.1,29.94,WSW,247,8.0,15.0,88,0.00,CLR,,0.00,0.0,WeatherDisplay:10.37,2013-09-08 05:10:00,
2013-09-08 06:15:00,49.5,47.3,29.94,WSW,251,9.0,15.0,92,0.00,CLR,,0.00,0.0,WeatherDisplay:10.37,2013-09-08 05:15:00,
2013-09-08 06:20:00,49.6,46.2,29.94,WSW,253,9.0,14.0,88,0.00,CLR,,0.00,0.0,WeatherDisplay:10.37,2013-09-08 05:20:00,
2013-09-08 06:25:00,49.7,46.3,29.94,WSW,253,8.0,13.0,88,0.00,CLR,,0.00,0.0,WeatherDisplay:10.37,2013-09-08 05:25:00,
2013-09-08 06:30:00,49.7,46.3,29.94,WSW,250,9.0,16.0,88,0.00,OVC,,0.00,0.0,WeatherDisplay:10.37,2013-09-08 05:30:00,
2013-09-08 06:40:00,49.7,46.3,29.94,WSW,253,8.0,16.0,88,0.00,OVC,,0.00,0.0,WeatherDisplay:10.37,2013-09-08 05:40:00,
2013-09-08 06:45:00,49.8,46.4,29.94,WSW,251,7.0,13.0,88,0.00,OVC,,0.00,0.0,WeatherDisplay:10.37,2013-09-08 05:45:00,
2013-09-08 06:50:00,49.8,46.4,29.95,WSW,252,9.0,13.0,88,0.00,OVC,,0.00,0.0,WeatherDisplay:10.37,2013-09-08 05:50:00,
2013-09-08 06:55:00,49.9,46.5,29.95,WSW,252,8.0,15.0,88,0.00,OVC,,0.00,0.0,WeatherDisplay:10.37,2013-09-08 05:55:00,
2013-09-08 07:01:00,49.9,46.5,29.95,WSW,253,6.0,12.0,88,0.00,OVC,,0.00,0.0,WeatherDisplay:10.37,2013-09-08 06:01:00,
2013-09-08 07:11:00,49.9,46.5,29.95,WSW,244,7.0,10.0,88,0.00,OVC,,0.00,0.0,WeatherDisplay:10.37,2013-09-08 06:11:00,
2013-09-08 07:20:00,50.1,46.4,29.95,WSW,249,7.0,10.0,87,0.00,BKN,,0.00,7.0,WeatherDisplay:10.37,2013-09-08 06:20:00,
2013-09-08 07:31:00,50.3,46.6,29.96,WSW,245,7.0,12.0,87,0.00,BKN,,0.00,9.0,WeatherDisplay:10.37,2013-09-08 06:31:00,
2013-09-08 07:40:00,50.5,46.5,29.96,WSW,250,6.0,12.0,86,0.00,BKN,,0.00,12.0,WeatherDisplay:10.37,2013-09-08 06:40:00,
2013-09-08 07:45:00,50.6,46.6,29.96,WSW,250,6.0,10.0,86,0.00,BKN,,0.00,14.0,WeatherDisplay:10.37,2013-09-08 06:45:00,
2013-09-08 07:50:00,50.7,46.6,29.96,WSW,251,5.0,9.0,86,0.00,BKN,,0.00,14.0,WeatherDisplay:10.37,2013-09-08 06:50:00,
2013-09-08 08:01:00,50.7,46.7,29.96,WSW,251,5.0,9.0,86,0.00,BKN,,0.00,33.0,WeatherDisplay:10.37,2013-09-08 07:01:00,
2013-09-08 08:10:00,50.9,47.1,29.96,WSW,252,3.0,6.0,87,0.00,BKN,,0.00,53.0,WeatherDisplay:10.37,2013-09-08 07:10:00,
2013-09-08 08:15:00,50.9,47.2,29.96,WSW,252,5.0,6.0,87,0.00,BKN,,0.00,60.0,WeatherDisplay:10.37,2013-09-08 07:15:00,
2013-09-08 08:20:00,50.9,47.2,29.96,WSW,252,3.0,6.0,87,0.00,BKN,,0.00,69.0,WeatherDisplay:10.37,2013-09-08 07:20:00,
2013-09-08 08:31:00,51.1,47.4,29.97,WSW,252,5.0,8.0,87,0.00,BKN,,0.00,81.0,WeatherDisplay:10.37,2013-09-08 07:31:00,
2013-09-08 08:40:00,51.3,47.6,29.97,WSW,252,3.0,7.0,87,0.00,BKN,,0.00,97.0,WeatherDisplay:10.37,2013-09-08 07:40:00,
2013-09-08 08:45:00,51.4,48.0,29.97,WSW,252,5.0,6.0,88,0.00,BKN,,0.00,102.0,WeatherDisplay:10.37,2013-09-08 07:45:00,
2013-09-08 08:50:00,51.5,47.8,29.97,West,259,5.0,9.0,87,0.00,BKN,,0.00,97.0,WeatherDisplay:10.37,2013-09-08 07:50:00,
2013-09-08 09:01:00,51.7,48.0,29.97,West,265,3.0,6.0,87,0.00,BKN,,0.00,98.0,WeatherDisplay:10.37,2013-09-08 08:01:00,
2013-09-08 09:11:00,51.9,48.2,29.97,West,265,3.0,6.0,87,0.00,BKN,,0.00,100.0,WeatherDisplay:10.37,2013-09-08 08:11:00,
2013-09-08 09:16:00,52.0,47.9,29.97,West,263,3.0,7.0,86,0.00,BKN,,0.00,105.0,WeatherDisplay:10.37,2013-09-08 08:16:00,
2013-09-08 09:25:00,52.3,48.2,29.97,West,262,3.0,6.0,86,0.00,BKN,,0.00,134.0,WeatherDisplay:10.37,2013-09-08 08:25:00,
2013-09-08 09:31:00,52.5,48.1,29.97,West,262,5.0,6.0,85,0.00,BKN,,0.00,142.0,WeatherDisplay:10.37,2013-09-08 08:31:00,
2013-09-08 09:41:00,52.9,48.5,29.98,West,262,3.0,6.0,85,0.00,BKN,,0.00,160.0,WeatherDisplay:10.37,2013-09-08 08:41:00,
2013-09-08 09:46:00,53.1,48.4,29.98,West,262,2.0,6.0,84,0.00,BKN,,0.00,179.0,WeatherDisplay:10.37,2013-09-08 08:46:00,
2013-09-08 09:51:00,53.2,48.5,29.98,West,262,5.0,7.0,84,0.00,BKN,,0.00,192.0,WeatherDisplay:10.37,2013-09-08 08:51:00,
2013-09-08 10:01:00,53.8,48.8,29.97,WSW,251,3.0,6.0,83,0.00,SCT,,0.00,236.0,WeatherDisplay:10.37,2013-09-08 09:01:00,
2013-09-08 10:11:00,54.5,49.4,29.97,WSW,258,2.0,4.0,83,0.00,SCT,,0.00,253.0,WeatherDisplay:10.37,2013-09-08 09:11:00,
2013-09-08 10:16:00,54.9,49.5,29.97,West,259,3.0,7.0,82,0.00,SCT,,0.00,322.0,WeatherDisplay:10.37,2013-09-08 09:16:00,
2013-09-08 10:21:00,55.4,50.0,29.97,West,260,5.0,7.0,82,0.00,FEW,,0.00,392.0,WeatherDisplay:10.37,2013-09-08 09:21:00,
2013-09-08 10:31:00,56.8,50.3,29.97,WSW,258,3.0,6.0,79,0.00,CLR,,0.00,501.0,WeatherDisplay:10.37,2013-09-08 09:31:00,
2013-09-08 10:41:00,57.9,50.0,29.97,West,277,5.0,12.0,75,0.00,CLR,,0.00,334.0,WeatherDisplay:10.37,2013-09-08 09:41:00,
2013-09-08 10:46:00,57.8,48.8,29.97,West,275,3.0,12.0,72,0.00,FEW,,0.00,325.0,WeatherDisplay:10.37,2013-09-08 09:46:00,
2013-09-08 10:51:00,57.5,48.6,29.97,WSW,246,6.0,9.0,72,0.00,SCT,,0.00,362.0,WeatherDisplay:10.37,2013-09-08 09:51:00,
2013-09-08 11:01:00,57.2,48.6,29.97,WSW,242,5.0,7.0,73,0.00,SCT,,0.00,315.0,WeatherDisplay:10.37,2013-09-08 10:01:00,
2013-09-08 11:11:00,57.3,48.7,29.97,West,269,6.0,8.0,73,0.00,SCT,,0.00,378.0,WeatherDisplay:10.37,2013-09-08 10:11:00,
2013-09-08 11:16:00,57.4,48.8,29.97,WSW,258,3.0,9.0,73,0.00,SCT,,0.00,424.0,WeatherDisplay:10.37,2013-09-08 10:16:00,
2013-09-08 11:21:00,57.5,48.6,29.97,WSW,247,3.0,7.0,72,0.00,SCT,,0.00,353.0,WeatherDisplay:10.37,2013-09-08 10:21:00,
2013-09-08 11:31:00,57.5,48.6,29.97,SW,234,5.0,7.0,72,0.00,SCT,,0.00,316.0,WeatherDisplay:10.37,2013-09-08 10:31:00,
2013-09-08 11:41:00,57.0,47.3,29.97,SW,222,5.0,9.0,70,0.00,BKN,,0.00,279.0,WeatherDisplay:10.37,2013-09-08 10:41:00,
2013-09-08 11:46:00,56.8,47.5,29.97,SW,221,6.0,10.0,71,0.00,BKN,,0.00,274.0,WeatherDisplay:10.37,2013-09-08 10:46:00,
2013-09-08 11:51:00,56.6,46.9,29.96,SW,220,6.0,10.0,70,0.00,BKN,,0.00,274.0,WeatherDisplay:10.37,2013-09-08 10:51:00,
2013-09-08 12:01:00,56.3,47.4,29.97,SW,229,6.0,9.0,72,0.00,BKN,,0.00,325.0,WeatherDisplay:10.37,2013-09-08 11:01:00,
2013-09-08 12:11:00,56.9,47.6,29.97,SW,225,3.0,9.0,71,0.00,SCT,,0.00,541.0,WeatherDisplay:10.37,2013-09-08 11:11:00,
2013-09-08 12:16:00,57.7,48.4,29.96,SW,221,6.0,9.0,71,0.00,CLR,,0.00,751.0,WeatherDisplay:10.37,2013-09-08 11:16:00,
2013-09-08 12:21:00,58.3,47.8,29.97,SW,234,5.0,13.0,68,0.00,CLR,,0.00,371.0,WeatherDisplay:10.37,2013-09-08 11:21:00,
2013-09-08 12:31:00,58.3,47.0,29.97,SSW,206,7.0,10.0,66,0.00,FEW,,0.00,512.0,WeatherDisplay:10.37,2013-09-08 11:31:00,
2013-09-08 12:41:00,58.1,46.8,29.96,WSW,242,6.0,12.0,66,0.00,SCT,,0.00,411.0,WeatherDisplay:10.37,2013-09-08 11:41:00,
2013-09-08 12:46:00,58.1,46.4,29.96,WSW,257,5.0,12.0,65,0.00,SCT,,0.00,336.0,WeatherDisplay:10.37,2013-09-08 11:46:00,
2013-09-08 12:51:00,58.1,46.8,29.95,West,268,6.0,9.0,66,0.00,BKN,,0.00,267.0,WeatherDisplay:10.37,2013-09-08 11:51:00,
2013-09-08 13:01:00,58.1,48.0,29.96,WSW,253,5.0,8.0,69,0.00,BKN,,0.00,360.0,WeatherDisplay:10.37,2013-09-08 12:01:00,
2013-09-08 13:11:00,58.8,47.9,29.95,WSW,253,7.0,12.0,67,0.00,SCT,,0.00,413.0,WeatherDisplay:10.37,2013-09-08 12:11:00,
2013-09-08 13:16:00,58.8,46.6,29.95,WSW,239,7.0,12.0,64,0.00,SCT,,0.00,329.0,WeatherDisplay:10.37,2013-09-08 12:16:00,
2013-09-08 13:21:00,58.5,47.2,29.95,SW,230,7.0,12.0,66,0.00,SCT,,0.00,334.0,WeatherDisplay:10.37,2013-09-08 12:21:00,
2013-09-08 13:31:00,58.3,47.8,29.95,WSW,239,5.0,7.0,68,0.00,BKN,,0.00,403.0,WeatherDisplay:10.37,2013-09-08 12:31:00,
2013-09-08 13:41:00,58.3,47.8,29.95,SSW,213,5.0,9.0,68,0.00,BKN,,0.00,248.0,WeatherDisplay:10.37,2013-09-08 12:41:00,
2013-09-08 13:46:00,58.0,47.1,29.95,SSW,212,6.0,9.0,67,0.00,BKN,,0.00,246.0,WeatherDisplay:10.37,2013-09-08 12:46:00,
2013-09-08 13:51:00,57.7,47.2,29.95,SW,215,5.0,8.0,68,0.00,BKN,,0.00,220.0,WeatherDisplay:10.37,2013-09-08 12:51:00,
2013-09-08 14:01:00,57.3,47.6,29.96,SW,215,5.0,8.0,70,0.00,BKN,,0.00,227.0,WeatherDisplay:10.37,2013-09-08 13:01:00,
2013-09-08 14:11:00,57.2,47.9,29.97,SW,222,6.0,10.0,71,0.01,RA,,0.01,213.0,WeatherDisplay:10.37,2013-09-08 13:11:00,
2013-09-08 14:16:00,57.0,47.3,29.96,SSW,210,6.0,12.0,70,0.00,RA,,0.01,246.0,WeatherDisplay:10.37,2013-09-08 13:16:00,
2013-09-08 14:21:00,57.0,47.3,29.96,SSW,203,7.0,9.0,70,0.00,BKN,,0.01,248.0,WeatherDisplay:10.37,2013-09-08 13:21:00,
2013-09-08 14:26:00,57.0,47.7,29.96,SSW,203,5.0,8.0,71,0.00,BKN,,0.01,237.0,WeatherDisplay:10.37,2013-09-08 13:26:00,
2013-09-08 14:31:00,57.0,47.7,29.96,SSW,202,3.0,7.0,71,0.00,BKN,,0.01,195.0,WeatherDisplay:10.37,2013-09-08 13:31:00,
2013-09-08 14:41:00,57.0,47.3,29.96,SSW,197,3.0,6.0,70,0.00,BKN,,0.01,172.0,WeatherDisplay:10.37,2013-09-08 13:41:00,
2013-09-08 14:46:00,56.9,47.6,29.96,South,191,5.0,7.0,71,0.00,BKN,,0.01,163.0,WeatherDisplay:10.37,2013-09-08 13:46:00,
2013-09-08 14:51:00,56.8,47.5,29.96,South,187,3.0,7.0,71,0.00,BKN,,0.01,169.0,WeatherDisplay:10.37,2013-09-08 13:51:00,
2013-09-08 14:56:00,56.7,47.8,29.96,South,185,3.0,6.0,72,0.00,BKN,,0.01,176.0,WeatherDisplay:10.37,2013-09-08 13:56:00,
2013-09-08 15:01:00,56.8,48.2,29.95,South,185,3.0,5.0,73,0.00,BKN,,0.01,172.0,WeatherDisplay:10.37,2013-09-08 14:01:00,
2013-09-08 15:11:00,56.9,48.3,29.95,South,186,3.0,7.0,73,0.00,BKN,,0.01,206.0,WeatherDisplay:10.37,2013-09-08 14:11:00,
2013-09-08 15:21:00,56.9,47.6,29.95,SSW,195,7.0,12.0,71,0.00,BKN,,0.01,258.0,WeatherDisplay:10.37,2013-09-08 14:21:00,
2013-09-08 15:31:00,57.1,48.5,29.95,SSW,192,5.0,9.0,73,0.00,BKN,,0.01,253.0,WeatherDisplay:10.37,2013-09-08 14:31:00,
2013-09-08 15:41:00,57.4,48.4,29.96,South,190,2.0,7.0,72,0.00,BKN,,0.01,179.0,WeatherDisplay:10.37,2013-09-08 14:41:00,
2013-09-08 15:46:00,57.4,48.4,29.96,South,190,2.0,5.0,72,0.00,BKN,,0.01,183.0,WeatherDisplay:10.37,2013-09-08 14:46:00,
2013-09-08 15:51:00,57.5,48.5,29.95,South,190,2.0,4.0,72,0.00,BKN,,0.01,183.0,WeatherDisplay:10.37,2013-09-08 14:51:00,
2013-09-08 16:01:00,57.4,48.4,29.94,South,187,3.0,9.0,72,0.00,BKN,,0.01,169.0,WeatherDisplay:10.37,2013-09-08 15:01:00,
2013-09-08 16:11:00,57.4,48.8,29.94,South,186,3.0,6.0,73,0.00,BKN,,0.01,257.0,WeatherDisplay:10.37,2013-09-08 15:11:00,
2013-09-08 16:21:00,57.9,49.6,29.94,South,183,2.0,6.0,74,0.00,BKN,,0.01,237.0,WeatherDisplay:10.37,2013-09-08 15:21:00,
2013-09-08 16:31:00,58.3,49.3,29.94,South,181,3.0,7.0,72,0.00,BKN,,0.01,169.0,WeatherDisplay:10.37,2013-09-08 15:31:00,
2013-09-08 16:41:00,58.0,49.0,29.94,South,181,2.0,4.0,72,0.00,BKN,,0.01,169.0,WeatherDisplay:10.37,2013-09-08 15:41:00,
2013-09-08 16:46:00,58.0,49.0,29.94,South,181,2.0,4.0,72,0.00,BKN,,0.01,172.0,WeatherDisplay:10.37,2013-09-08 15:46:00,
2013-09-08 16:51:00,58.1,49.5,29.94,South,181,3.0,5.0,73,0.00,BKN,,0.01,165.0,WeatherDisplay:10.37,2013-09-08 15:51:00,
2013-09-08 17:01:00,58.2,49.6,29.94,South,181,2.0,4.0,73,0.00,BKN,,0.01,195.0,WeatherDisplay:10.37,2013-09-08 16:01:00,
2013-09-08 17:11:00,58.5,49.5,29.94,South,181,3.0,5.0,72,0.00,BKN,,0.01,200.0,WeatherDisplay:10.37,2013-09-08 16:11:00,
2013-09-08 17:16:00,58.6,49.6,29.94,South,181,3.0,4.0,72,0.00,BKN,,0.01,155.0,WeatherDisplay:10.37,2013-09-08 16:16:00,
2013-09-08 17:26:00,58.5,49.5,29.94,South,181,3.0,5.0,72,0.00,BKN,,0.01,134.0,WeatherDisplay:10.37,2013-09-08 16:26:00,
2013-09-08 17:31:00,58.3,49.3,29.94,South,181,2.0,5.0,72,0.00,BKN,,0.01,105.0,WeatherDisplay:10.37,2013-09-08 16:31:00,
2013-09-08 17:41:00,58.0,49.8,29.94,South,181,1.0,2.0,74,0.00,BKN,,0.01,65.0,WeatherDisplay:10.37,2013-09-08 16:41:00,
2013-09-08 17:46:00,57.9,49.3,29.94,South,181,1.0,3.0,73,0.00,BKN,,0.01,72.0,WeatherDisplay:10.37,2013-09-08 16:46:00,
2013-09-08 17:51:00,57.9,49.6,29.94,South,181,1.0,3.0,74,0.00,BKN,,0.01,86.0,WeatherDisplay:10.37,2013-09-08 16:51:00,
2013-09-08 17:56:00,57.8,49.9,29.94,South,181,1.0,3.0,75,0.00,BKN,,0.01,97.0,WeatherDisplay:10.37,2013-09-08 16:56:00,
2013-09-08 18:01:00,57.8,49.6,29.94,South,181,2.0,3.0,74,0.00,BKN,,0.01,107.0,WeatherDisplay:10.37,2013-09-08 17:01:00,
2013-09-08 18:11:00,58.0,50.5,29.94,South,181,0.0,3.0,76,0.00,BKN,,0.01,62.0,WeatherDisplay:10.37,2013-09-08 17:11:00,
2013-09-08 18:16:00,58.0,50.1,29.94,South,181,0.0,3.0,75,0.00,BKN,,0.01,47.0,WeatherDisplay:10.37,2013-09-08 17:16:00,
2013-09-08 18:21:00,57.9,49.3,29.95,South,181,1.0,3.0,73,0.00,BKN,,0.01,42.0,WeatherDisplay:10.37,2013-09-08 17:21:00,
2013-09-08 18:31:00,57.5,49.3,29.95,South,181,1.0,3.0,74,0.00,BKN,,0.01,30.0,WeatherDisplay:10.37,2013-09-08 17:31:00,
2013-09-08 18:41:00,57.2,49.0,29.95,South,181,1.0,3.0,74,0.00,BKN,,0.01,42.0,WeatherDisplay:10.37,2013-09-08 17:41:00,
2013-09-08 18:46:00,57.0,48.8,29.95,South,181,1.0,3.0,74,0.00,BKN,,0.01,69.0,WeatherDisplay:10.37,2013-09-08 17:46:00,
2013-09-08 18:51:00,56.8,48.6,29.95,South,181,0.0,3.0,74,0.00,BKN,,0.01,74.0,WeatherDisplay:10.37,2013-09-08 17:51:00,
2013-09-08 19:01:00,56.8,49.3,29.95,South,181,0.0,2.0,76,0.00,SCT,,0.01,81.0,WeatherDisplay:10.37,2013-09-08 18:01:00,
2013-09-08 19:11:00,56.8,49.3,29.95,South,181,0.0,2.0,76,0.00,SCT,,0.01,70.0,WeatherDisplay:10.37,2013-09-08 18:11:00,
2013-09-08 19:16:00,56.7,49.2,29.95,South,181,0.0,3.0,76,0.00,SCT,,0.01,53.0,WeatherDisplay:10.37,2013-09-08 18:16:00,
2013-09-08 19:21:00,56.7,49.2,29.95,South,181,0.0,1.0,76,0.00,BKN,,0.01,46.0,WeatherDisplay:10.37,2013-09-08 18:21:00,
2013-09-08 19:31:00,56.6,49.1,29.95,South,181,0.0,0.0,76,0.00,SCT,,0.01,40.0,WeatherDisplay:10.37,2013-09-08 18:31:00,
2013-09-08 19:41:00,56.5,49.4,29.95,South,181,0.0,0.0,77,0.00,SCT,,0.01,32.0,WeatherDisplay:10.37,2013-09-08 18:41:00,
2013-09-08 19:46:00,56.4,49.6,29.95,South,181,0.0,0.0,78,0.00,BKN,,0.01,16.0,WeatherDisplay:10.37,2013-09-08 18:46:00,
2013-09-08 19:51:00,56.0,49.6,29.94,South,181,0.0,0.0,79,0.00,BKN,,0.01,11.0,WeatherDisplay:10.37,2013-09-08 18:51:00,
2013-09-08 20:01:00,55.2,49.1,29.94,South,181,0.0,0.0,80,0.00,SCT,,0.01,11.0,WeatherDisplay:10.37,2013-09-08 19:01:00,
2013-09-08 20:11:00,54.0,48.7,29.95,South,181,1.0,2.0,82,0.00,OVC,,0.01,0.0,WeatherDisplay:10.37,2013-09-08 19:11:00,
2013-09-08 20:16:00,53.6,48.6,29.95,South,181,0.0,1.0,83,0.00,OVC,,0.01,0.0,WeatherDisplay:10.37,2013-09-08 19:16:00,
2013-09-08 20:21:00,53.2,48.5,29.95,South,181,0.0,1.0,84,0.00,OVC,,0.01,0.0,WeatherDisplay:10.37,2013-09-08 19:21:00,
2013-09-08 20:31:00,52.8,48.1,29.95,South,181,0.0,0.0,84,0.00,OVC,,0.01,0.0,WeatherDisplay:10.37,2013-09-08 19:31:00,
2013-09-08 20:41:00,52.2,47.8,29.96,South,181,0.0,0.0,85,0.00,CLR,,0.01,0.0,WeatherDisplay:10.37,2013-09-08 19:41:00,
2013-09-08 20:46:00,52.0,47.6,29.96,South,181,0.0,0.0,85,0.00,CLR,,0.01,0.0,WeatherDisplay:10.37,2013-09-08 19:46:00,
2013-09-08 20:56:00,51.7,47.3,29.96,South,181,0.0,0.0,85,0.00,CLR,,0.01,0.0,WeatherDisplay:10.37,2013-09-08 19:56:00,
2013-09-08 21:01:00,51.6,47.5,29.96,South,181,0.0,0.0,86,0.00,CLR,,0.01,0.0,WeatherDisplay:10.37,2013-09-08 20:01:00,
2013-09-08 21:11:00,51.4,47.7,29.96,South,181,0.0,0.0,87,0.00,CLR,,0.01,0.0,WeatherDisplay:10.37,2013-09-08 20:11:00,
2013-09-08 21:16:00,51.3,47.6,29.96,South,181,0.0,0.0,87,0.00,CLR,,0.01,0.0,WeatherDisplay:10.37,2013-09-08 20:16:00,
2013-09-08 21:26:00,51.1,47.7,29.96,South,181,0.0,0.0,88,0.00,CLR,,0.01,0.0,WeatherDisplay:10.37,2013-09-08 20:26:00,
2013-09-08 21:31:00,50.9,47.5,29.96,South,181,0.0,0.0,88,0.00,CLR,,0.01,0.0,WeatherDisplay:10.37,2013-09-08 20:31:00,
2013-09-08 21:41:00,50.5,47.1,29.96,South,181,0.0,0.0,88,0.00,CLR,,0.01,0.0,WeatherDisplay:10.37,2013-09-08 20:41:00,
2013-09-08 21:46:00,50.3,46.9,29.97,South,181,0.0,0.0,88,0.00,CLR,,0.01,0.0,WeatherDisplay:10.37,2013-09-08 20:46:00,
2013-09-08 21:51:00,50.0,46.6,29.97,South,181,0.0,0.0,88,0.00,CLR,,0.01,0.0,WeatherDisplay:10.37,2013-09-08 20:51:00,
2013-09-08 22:01:00,49.5,46.1,29.97,South,181,0.0,0.0,88,0.00,CLR,,0.01,0.0,WeatherDisplay:10.37,2013-09-08 21:01:00,
2013-09-08 22:11:00,48.9,45.5,29.97,South,181,0.0,1.0,88,0.00,CLR,,0.01,0.0,WeatherDisplay:10.37,2013-09-08 21:11:00,
2013-09-08 22:22:00,48.1,44.4,29.97,South,181,0.0,0.0,87,0.00,CLR,,0.01,0.0,WeatherDisplay:10.37,2013-09-08 21:22:00,
2013-09-08 22:31:00,47.2,43.5,29.97,South,181,0.0,0.0,87,0.00,CLR,,0.01,0.0,WeatherDisplay:10.37,2013-09-08 21:31:00,
2013-09-08 22:41:00,46.6,43.2,29.97,South,181,0.0,0.0,88,0.00,CLR,,0.01,0.0,WeatherDisplay:10.37,2013-09-08 21:41:00,
2013-09-08 22:46:00,46.2,42.9,29.97,South,181,0.0,1.0,88,0.00,CLR,,0.01,0.0,WeatherDisplay:10.37,2013-09-08 21:46:00,
2013-09-08 22:56:00,46.0,43.2,29.97,South,181,0.0,1.0,90,0.00,CLR,,0.01,0.0,WeatherDisplay:10.37,2013-09-08 21:56:00,
2013-09-08 23:01:00,46.0,43.2,29.97,South,181,0.0,0.0,90,0.00,CLR,,0.01,0.0,WeatherDisplay:10.37,2013-09-08 22:01:00,
2013-09-08 23:11:00,45.9,43.4,29.98,South,181,0.0,0.0,91,0.00,CLR,,0.01,0.0,WeatherDisplay:10.37,2013-09-08 22:11:00,
2013-09-08 23:16:00,45.9,43.4,29.98,South,181,0.0,0.0,91,0.00,CLR,,0.01,0.0,WeatherDisplay:10.37,2013-09-08 22:16:00,
2013-09-08 23:26:00,46.0,43.8,29.98,South,181,0.0,0.0,92,0.00,CLR,,0.01,0.0,WeatherDisplay:10.37,2013-09-08 22:26:00,
2013-09-08 23:31:00,46.1,43.9,29.98,South,181,0.0,1.0,92,0.00,CLR,,0.01,0.0,WeatherDisplay:10.37,2013-09-08 22:31:00,
2013-09-08 23:36:00,46.2,44.0,29.98,South,181,0.0,1.0,92,0.00,CLR,,0.01,0.0,WeatherDisplay:10.37,2013-09-08 22:36:00,
2013-09-08 23:41:00,46.4,44.5,29.98,South,181,0.0,1.0,93,0.00,CLR,,0.01,0.0,WeatherDisplay:10.37,2013-09-08 22:41:00,
2013-09-08 23:46:00,46.8,45.2,29.99,South,181,0.0,1.0,94,0.00,CLR,,0.01,0.0,WeatherDisplay:10.37,2013-09-08 22:46:00,
2013-09-08 23:51:00,47.2,45.6,29.99,South,181,0.0,1.0,94,0.00,CLR,,0.01,0.0,WeatherDisplay:10.37,2013-09-08 22:51:00,